Content
SEND FEEDBACK

Daily
Averages
Monthly
Summary
United States of America

SIMPSON, LOUISIANA


Home > North America > United States > Louisiana
Elevation: 90 meters     Latitude: 31 16N     Longitude: 093 01W

WEATHER
 
SELECT A DAY
Number of Records: 91,243;   Date Range: 3/3/05 - 5/2/13
 
SHARE

PRINT THIS DATA

[ ← Previous Day ]
WEATHER ALMANAC - 23 JANUARY, 2013
[ Next Day → ]
[ °F ]   °C
Weather ElementAverageHighLow
Temperature14.5 °C22.2 °C (2:53 pm)8.3 °C (6:53 am)
Dewpoint9.2 °C11.7 °C (7:53 pm)5.6 °C (1:53 am)
Humidity73.1 %93 % (5:53 am)43 % (2:53 pm)
Barometer1026.1 hPa1028.1 hPa (9:53 am)1024.4 hPa (3:53 pm)
Wind Speed10 km/h16.7 km/h (1:53 pm)
Wind Gust27.8 km/h (11:53 am)
Weather ElementAverage
Visibility14.3 km
Wind DirectionSSW (187.6 °)

Weather ElementTotal
Precipitation---
Heating Degree Days3.1 (Base 18.3)
Growing Degree Days5.3 (Base 10)
Averaged from 25 records on 23 January, 2013
WEATHER CONDITIONS BREAKOUT
WIND DIRECTION BREAKOUT
WEATHER BY HOUR - 23 JANUARY, 2013
[ °F ]   °C
Local TimeTemperatureDewpointHumidityBarometerVisibilityWind DirectionWind SpeedGust SpeedPrecipitationEventsConditions
1:53 AM9.4 °C5.6 °C77 %1026.4 hPa16.1 kmSouth (190°)7.4 km/hClear
2:53 AM9.4 °C5.6 °C77 %1026.1 hPa16.1 kmSouth (190°)7.4 km/hClear
3:53 AM9.4 °C5.6 °C77 %1026.1 hPa16.1 kmSSW (210°)5.6 km/hClear
4:53 AM9.4 °C7.2 °C86 %1026.4 hPa14.5 kmSSW (200°)5.6 km/hClear
5:53 AM9.4 °C8.3 °C93 %1026.8 hPa6.4 kmCalmClear
6:21 AM9 °C8 °C93 %1027.1 hPa4 kmSSW (200°)5.6 km/hClear
6:44 AM9 °C8 °C93 %1027.1 hPa6.4 kmSouth (180°)5.6 km/hClear
6:53 AM8.3 °C7.2 °C93 %1027.1 hPa8 kmSouth (180°)9.3 km/hClear
7:53 AM9.4 °C8.3 °C93 %1027.4 hPa11.3 kmSouth (190°)9.3 km/hClear
8:53 AM12.2 °C10 °C86 %1027.8 hPa16.1 kmSouth (190°)11.1 km/hClear
9:53 AM15.6 °C11.1 °C75 %1028.1 hPa16.1 kmSW (220°)11.1 km/hClear
10:53 AM17.8 °C10.6 °C63 %1028.1 hPa16.1 kmSouth (190°)13 km/hClear
11:53 AM19.4 °C10.6 °C57 %1027.1 hPa16.1 kmSW (220°)13 km/h27.8 km/hClear
12:53 PM20.6 °C8.9 °C47 %1026.1 hPa16.1 kmSW (230°)13 km/hClear
1:53 PM21.1 °C9.4 °C47 %1025.1 hPa16.1 kmSW (220°)16.7 km/h27.8 km/hPartly Cloudy
2:53 PM22.2 °C8.9 °C43 %1024.7 hPa16.1 kmSSW (200°)14.8 km/hClear
3:53 PM21.7 °C8.9 °C44 %1024.4 hPa16.1 kmSouth (190°)13 km/hClear
4:53 PM20.6 °C10 °C51 %1024.4 hPa16.1 kmSouth (190°)11.1 km/h27.8 km/hScattered Clouds
5:53 PM18.3 °C10.6 °C61 %1024.4 hPa16.1 kmSouth (190°)11.1 km/hClear
6:53 PM17.2 °C11.1 °C67 %1024.4 hPa16.1 kmSouth (190°)13 km/hClear
7:53 PM16.1 °C11.7 °C75 %1024.4 hPa16.1 kmSouth (190°)13 km/hClear
8:53 PM15.6 °C11.1 °C75 %1024.7 hPa16.1 kmSouth (190°)9.3 km/hClear
9:53 PM14.4 °C11.1 °C81 %1025.1 hPa16.1 kmSouth (170°)11.1 km/hClear
10:53 PM13.3 °C11.1 °C87 %1025.1 hPa16.1 kmSouth (180°)11.1 km/hClear
11:53 PM13.3 °C11.1 °C87 %1025.1 hPa16.1 kmSouth (190°)9.3 km/hPartly Cloudy
Hourly data recorded from KDNK, located 0 kilometers away from Simpson, Louisiana







STORIES FROM OUR PARTNERS